Погода в Хетафе

Испания     40°18′24″N   3°43′30″W
темп.,
°C
ветер,
м/с
пор.,
м/с
влажн.,
%
обл.,
%
осадки,
мм/ч
давл.,
гПа
погр.,
м
6 марта, сб
сб601:00+9всв346886 0.0 101933
04:00+7в237424 0.0 101924
07:00+6всв237959 0.0 102129
10:00+10всв23620 0.0 1021359
13:00+14в34490 0.0 10191382
16:00+15вюв45396 0.0 10171713
19:00+12юв586311 0.0 1017229
22:00+9юв46754 0.0 1020141
7 марта, вс
вс701:00+8в338246 0.0 102068
04:00+8всв357677 0.0 1019189
07:00+8всв237289 0.0 1020118
10:00+10всв346384 0.0 1019681
13:00+12вюв335872 0.0 10181040
16:00+14юв335491 0.0 10141211
19:00+11ююз016979 0.0 101490
22:00+10ююв358169 1.4 1016149
8 марта, пн
пн801:00+8юв248884 2.9 1016113
04:00+7всв2292100 0.8 101637
07:00+6всв349171 1.1 101648
10:00+9всв237860 0.8 1017376
13:00+12вюв116170 0.8 1016974
16:00+14св11487 0.1 10141495
19:00+12св345918 0.6 1015114
22:00+9всв577585 0.6 1018164
9 марта, вт
вт901:00+8св467283 0.6 1020227
04:00+8св4673100 0.0 1020256
07:00+6св577387 0.0 1021150
10:00+8св566048 0.0 1022320
13:00+11св334924 0.0 10201117
16:00+13ссв22370 0.0 10181730
19:00+11вюв12510 0.0 1019117
22:00+8юз116014 0.0 102327
10 марта, ср
ср1001:00+7всв34567 0.0 102443
04:00+6св236012 0.0 102429
07:00+4ссв226122 0.0 102527
10:00+9ссв224567 0.0 1026237
13:00+13зюз123433 0.0 1024855
16:00+15юз33320 0.0 1023939
19:00+13юз34480 0.0 102366
22:00+10зюз345933 0.0 102648